Location: Battery Park City
(40.7115°N, 74.0163°W)
Time: 00:05:38
(UTC+00:00)

COBE Rocket - Pass Details

Date: 08 December 2019
Orbit: 681 x 781 km, 97.1° (Epoch: 24 January)

Event Time Altitude Azimuth Distance (km) Brightness Sun altitude
Rises 22:35:25 0° 8° (N) 3,050 6.8 -12.3°
Reaches altitude 10° 22:37:40 10° 6° (N) 2,131 6.1 -12.8°
Maximum altitude 22:42:17 67° 285° (WNW) 744 4.1 -13.6°
Drops below altitude 10° 22:46:55 10° 203° (SSW) 2,140 6.9 -14.4°
Sets 22:49:11 0° 200° (SSW) 3,064 7.7 -14.8°
